Regional Weather Roundup
Issued by NWS

Home | Current Version | Previous Version | Graphics & Text | Print | Product List | Glossary On
Versions: 1 2 3 4 5 6 7 8 9 10 11 12 13 14 15 16 17 18 19 20 21 22 23 24 25 26 27 28 29 30 31 32 33 34 35 36 37 38 39 40 41 42 43 44 45 46 47 48 49 50
000
ASUS43 KDMX 212306
RWRIA

WEATHER ROUNDUP FOR IOWA
NATIONAL WEATHER SERVICE DES MOINES IA
600 PM CDT THU SEP 21 2017

NOTE: "FAIR" INDICATES FEW OR NO CLOUDS BELOW 12,000 FEET WITH NO
SIGNIFICANT WEATHER AND/OR OBSTRUCTIONS TO VISIBILITY.

* - THESE STATIONS ARE NOT NWS STATIONS...THUS NOT UNDER NWS
QUALITY CONTROL.  THEY ALSO DO NOT REPORT WEATHER SUCH
AS PRECIPITATION OR FOG.

IAZ001>003-012>014-020>022-031>034-043>046-220000-
   NORTHWEST IOWA

CITY           SKY/WX    TMP DP  RH WIND       PRES   REMARKS
CARROLL *      SUNNY     88  73  62 S20G30    29.77S HX  96
CHEROKEE *     MOSUNNY   85  74  70 S15G23    29.74S HX  92
DENISON *      SUNNY     88  73  62 S15G24    29.76S HX  96
LE MARS *      MOSUNNY   86  75  70 SE13G22   29.70S HX  95
ORANGE CITY *  SUNNY     88  75  66 S15G22    29.72S HX  97
SHELDON *      MOSUNNY   82  72  69 S17G23    29.72R HX  87
SIOUX CITY     MOSUNNY   89  73  59 S13G31    29.70R HX  97
SPENCER        SUNNY     84  71  65 S18G26    29.75S HX  89
STORM LAKE *   SUNNY     84  72  65 S17G29    29.76S HX  89
$$

IAZ055>058-069>071-079>083-090>094-220000-
   SOUTHWEST IOWA

CITY           SKY/WX    TMP DP  RH WIND       PRES   REMARKS
ATLANTIC *     SUNNY     90  73  58 S14G26    29.77R HX  98
AUDUBON *      SUNNY     88  75  66 S18G28    29.79S HX  97
CLARINDA *     CLOUDY    90  73  58 S14G29    29.80S HX  98
COUNCIL BLFS * MOSUNNY   90  73  58 S21G29    29.75R HX  98
CRESTON *      SUNNY     88  70  55 S16G26    29.83S HX  92
HARLAN  *      SUNNY     90  73  58 S22       29.79S HX  98
LAMONI         SUNNY     89  70  53 S12G23    29.84S HX  94
RED OAK *      SUNNY     90  73  58 S15G23    29.77S HX  98
SHENANDOAH *   MOSUNNY   90  73  58 S17G29    29.77S HX  98
$$

IAZ047>049-059>061-072>074-084-220000-
   CENTRAL IOWA

CITY           SKY/WX    TMP DP  RH WIND       PRES   REMARKS
AMES           SUNNY     86  72  62 S18G30    29.82S HX  92
ANKENY *       SUNNY     88  72  58 S13G20    29.82S HX  94
BOONE *        SUNNY     88  72  58 S15G22    29.81S HX  94
CHARITON *     SUNNY     86  72  62 S16G25    29.84S HX  92
DES MOINES     MOSUNNY   88  72  58 S12G23    29.81S HX  94
GRINNELL*      SUNNY     86  69  56 S14G21    29.88S HX  89
KNOXVILLE *    SUNNY     86  70  58 S15G22    29.83F HX  90
MARSHALLTOWN   SUNNY     87  70  56 S10G24    29.84R HX  92
NEWTON *       SUNNY     86  70  58 S14G23    29.85S HX  90
PELLA *        SUNNY     88  69  52 S10G20    29.86S HX  92
PERRY *          N/A     89  73  59 S15G23    29.80S HX  96
$$

IAZ004>006-015-016-023>025-035-036-220000-
   NORTH CENTRAL IOWA

CITY           SKY/WX    TMP DP  RH WIND       PRES   REMARKS
ALGONA *       SUNNY     86  72  62 S14G30    29.78S HX  92
CLARION *      SUNNY     88  72  58 S21G30    29.80F HX  94
ESTHERVILLE    SUNNY     83  71  67 S18G29    29.75F HX  87
FORT DODGE *   SUNNY     87  72  60 S13G23    29.80S HX  93
MASON CITY     SUNNY     87  68  52 S18G24    29.83S HX  90
FOREST CITY *    N/A     86  68  54 S13G20    29.81S HX  89
WEBSTER CITY * SUNNY     88  72  58 S18G24    29.79S HX  94
IOWA FALLS *     N/A     87  71  58 S16G24    29.85R HX  92
$$

IAZ007>011-017>019-026>030-037>042-050>054-066-220000-
   NORTHEAST IOWA

CITY           SKY/WX    TMP DP  RH WIND       PRES   REMARKS
CEDAR RAPIDS   SUNNY     85  68  56 S9        29.90F HX  88
CHARLES CITY * MOSUNNY   88  68  51 S15       29.85S HX  91
CLINTON *      CLOUDY   N/A N/A N/A S9        29.95F
DECORAH *      MOSUNNY   81  66  61 SE10G20   29.88S HX  83
DUBUQUE        CLOUDY    81  66  60 S13       29.95S HX  83
MONTICELLO *   SUNNY     84  66  54 SE14G20   29.92S HX  86
OELWEIN *      MOSUNNY   88  68  51 S10G20    29.88S HX  91
WATERLOO       SUNNY     87  68  52 S20G26    29.84S HX  90
$$

IAZ064-065-067-068-078-220000-
   EAST CENTRAL IOWA

CITY           SKY/WX    TMP DP  RH WIND       PRES   REMARKS
DAVENPORT      MOSUNNY   84  68  58 S9        29.96F HX  87
IOWA CITY      SUNNY     86  68  54 SE14      29.92S HX  89
MUSCATINE *    CLOUDY    84  68  58 SE9G16    29.92F HX  87
QUAD CITIES    CLOUDY    86  69  56 SE10      29.93F HX  90
$$

IAZ062-063-075>077-085>089-095>099-220000-
   SOUTHEAST IOWA

CITY           SKY/WX    TMP DP  RH WIND       PRES   REMARKS
BURLINGTON     CLOUDY    84  72  67 S13G21    29.93F HX  89
FAIRFIELD *    SUNNY     86  70  58 SE9G16    29.90S HX  90
FORT MADISON * CLOUDY    88  73  62 SE8       29.93F HX  96
KEOKUK *       CLOUDY    86  73  66 SE13      29.91F HX  93
OSKALOOSA *      N/A     86  70  58 S14       29.88S HX  91
OTTUMWA        SUNNY     87  71  58 SE15      29.87F HX  93
WASHINGTON *   SUNNY     86  70  58 S8G16     29.92S HX  90
$$

ABBREVIATIONS USED IN REMARKS
   TC - TEMPERATURES IN CELSIUS
  WCI - WIND CHILL INDEX
   HX - HEAT INDEX
  VSB - VISIBILITY
$$





USA.gov is the U.S. government's official web portal to all federal, state and local government web resources and services.